VSZ YBAF-YSSY

Flight info

Callsign VSZ
Flight time 1h 2m
Altitude 40000
Route HUUGO H91 SANAD
Aircraft CL60/M-SADE3FGHIJ3J4J7P2RWXY/HB1D1

Departure

Time 2026-04-23 09:53
Airport Brisbane Archerfield Airport (YBAF)

Arrival

Time 2026-04-23 10:55
Airport Sydney Kingsford Smith International Airport (YSSY)
Time Latitude Longitude Altitude Speed Heading
2026-04-23 09:53 -27.63646 152.96143 11935 ft 221 kts 171°
2026-04-23 09:53 -27.65135 152.96332 13340 ft 226 kts 172°
2026-04-23 09:53 -27.66676 152.96335 14703 ft 231 kts 181°
2026-04-23 09:54 -27.68277 152.96199 16017 ft 237 kts 182°
2026-04-23 09:54 -27.69905 152.96060 17314 ft 240 kts 183°
2026-04-23 09:54 -27.71544 152.95920 18485 ft 245 kts 184°
2026-04-23 09:54 -27.73240 152.95773 19629 ft 250 kts 184°
2026-04-23 09:55 -27.74991 152.95622 20721 ft 254 kts 184°
2026-04-23 09:55 -27.76759 152.95467 21763 ft 259 kts 185°
2026-04-23 09:55 -27.78554 152.95309 22777 ft 262 kts 185°
2026-04-23 09:55 -27.80387 152.95149 23721 ft 268 kts 185°
2026-04-23 09:56 -27.82245 152.94984 24654 ft 274 kts 185°
2026-04-23 09:56 -27.84145 152.94817 25599 ft 278 kts 186°
2026-04-23 09:56 -27.86101 152.94644 26486 ft 282 kts 186°
2026-04-23 09:56 -27.88098 152.94466 27102 ft 296 kts 186°
2026-04-23 09:57 -27.90258 152.94275 27548 ft 314 kts 186°
2026-04-23 09:57 -27.92516 152.94075 28202 ft 323 kts 186°
2026-04-23 09:57 -27.94812 152.93872 28998 ft 328 kts 186°
2026-04-23 09:57 -27.97129 152.93668 29740 ft 333 kts 187°
2026-04-23 09:58 -27.99460 152.93463 30459 ft 337 kts 187°
2026-04-23 09:58 -28.01800 152.93256 31156 ft 341 kts 187°
2026-04-23 09:58 -28.04206 152.93041 31815 ft 344 kts 187°
2026-04-23 09:58 -28.06605 152.92827 32402 ft 349 kts 188°
2026-04-23 09:59 -28.08196 152.92630 32766 ft 350 kts 193°
2026-04-23 09:59 -28.10045 152.92125 33185 ft 349 kts 202°
2026-04-23 09:59 -28.12335 152.91148 33738 ft 352 kts 205°
2026-04-23 09:59 -28.14633 152.90124 34300 ft 354 kts 205°
2026-04-23 10:00 -28.16949 152.89096 34815 ft 354 kts 205°
2026-04-23 10:00 -28.19218 152.88091 35350 ft 352 kts 205°
2026-04-23 10:00 -28.21496 152.87077 35841 ft 351 kts 205°
2026-04-23 10:00 -28.23775 152.86064 36372 ft 350 kts 205°
2026-04-23 10:01 -28.26066 152.85043 36966 ft 350 kts 205°
2026-04-23 10:01 -28.28329 152.84033 37438 ft 351 kts 205°
2026-04-23 10:01 -28.30612 152.83015 37858 ft 354 kts 205°
2026-04-23 10:01 -28.32904 152.81992 38276 ft 355 kts 206°
2026-04-23 10:02 -28.35215 152.80960 38644 ft 356 kts 205°
2026-04-23 10:02 -28.37527 152.79927 39042 ft 356 kts 206°
2026-04-23 10:02 -28.39837 152.78894 39438 ft 355 kts 206°
2026-04-23 10:02 -28.42135 152.77867 39823 ft 354 kts 205°
2026-04-23 10:03 -28.44428 152.76842 40187 ft 353 kts 205°
2026-04-23 10:03 -28.46726 152.75812 40329 ft 359 kts 205°
2026-04-23 10:03 -28.49072 152.74760 40336 ft 368 kts 205°
2026-04-23 10:04 -28.53946 152.72574 40332 ft 385 kts 205°
2026-04-23 10:04 -28.59057 152.70283 40330 ft 400 kts 205°
2026-04-23 10:05 -28.64330 152.67920 40327 ft 414 kts 205°
2026-04-23 10:05 -28.69783 152.65475 40331 ft 426 kts 204°
2026-04-23 10:06 -28.75384 152.62965 40325 ft 436 kts 204°
2026-04-23 10:06 -28.81076 152.60411 40329 ft 444 kts 204°
2026-04-23 10:07 -28.86859 152.57812 40334 ft 452 kts 204°
2026-04-23 10:07 -28.92801 152.55141 40340 ft 461 kts 204°
2026-04-23 10:08 -28.98800 152.52431 40328 ft 468 kts 204°
2026-04-23 10:08 -29.04995 152.49916 40339 ft 468 kts 202°
2026-04-23 10:09 -29.14028 152.45743 40349 ft 465 kts 204°
2026-04-23 10:09 -29.20028 152.42964 40362 ft 464 kts 204°
2026-04-23 10:10 -29.26008 152.40205 40363 ft 464 kts 204°
2026-04-23 10:10 -29.32007 152.37447 40365 ft 463 kts 204°
2026-04-23 10:11 -29.38006 152.34692 40361 ft 463 kts 204°
2026-04-23 10:11 -29.43976 152.31955 40357 ft 463 kts 204°
2026-04-23 10:12 -29.49956 152.29216 40357 ft 464 kts 204°
2026-04-23 10:12 -29.55975 152.26460 40360 ft 463 kts 204°
2026-04-23 10:13 -29.61959 152.23720 40368 ft 463 kts 204°
2026-04-23 10:13 -29.67956 152.20972 40372 ft 463 kts 204°
2026-04-23 10:14 -29.73911 152.18239 40382 ft 462 kts 204°
2026-04-23 10:14 -29.79898 152.15491 40375 ft 461 kts 204°
2026-04-23 10:15 -29.85847 152.12758 40379 ft 461 kts 204°
2026-04-23 10:15 -29.91799 152.10020 40384 ft 462 kts 203°
2026-04-23 10:16 -29.97768 152.07272 40406 ft 461 kts 203°
2026-04-23 10:16 -30.03742 152.04518 40379 ft 462 kts 204°
2026-04-23 10:17 -30.09713 152.01762 40393 ft 462 kts 203°
2026-04-23 10:17 -30.15721 151.98985 40391 ft 461 kts 203°
2026-04-23 10:18 -30.21674 151.96230 40402 ft 460 kts 203°
2026-04-23 10:18 -30.27635 151.93468 40399 ft 460 kts 203°
2026-04-23 10:19 -30.33608 151.90697 40400 ft 460 kts 203°
2026-04-23 10:19 -30.39555 151.87935 40395 ft 460 kts 203°
2026-04-23 10:20 -30.45510 151.85165 40394 ft 460 kts 203°
2026-04-23 10:20 -30.51463 151.82391 40390 ft 460 kts 203°
2026-04-23 10:21 -30.57391 151.79629 40393 ft 460 kts 203°
2026-04-23 10:21 -30.63359 151.76843 40401 ft 461 kts 203°
2026-04-23 10:22 -30.69262 151.74083 40404 ft 460 kts 203°
2026-04-23 10:22 -30.75213 151.71298 40411 ft 460 kts 203°
2026-04-23 10:23 -30.81147 151.68515 40429 ft 460 kts 203°
2026-04-23 10:23 -30.87118 151.65712 40405 ft 460 kts 203°
2026-04-23 10:24 -30.93026 151.62935 40410 ft 460 kts 203°
2026-04-23 10:24 -30.98979 151.60132 40402 ft 459 kts 203°
2026-04-23 10:25 -31.04910 151.57336 40395 ft 460 kts 202°
2026-04-23 10:25 -31.10814 151.54550 40406 ft 460 kts 202°
2026-04-23 10:26 -31.16769 151.51733 40397 ft 459 kts 202°
2026-04-23 10:26 -31.22687 151.48933 40405 ft 459 kts 202°
2026-04-23 10:27 -31.28588 151.46137 40395 ft 459 kts 202°
2026-04-23 10:27 -31.34520 151.43323 40408 ft 459 kts 202°
2026-04-23 10:28 -31.40609 151.40932 40408 ft 461 kts 193°
2026-04-23 10:28 -31.46917 151.39653 40414 ft 462 kts 190°
2026-04-23 10:29 -31.53290 151.38431 40415 ft 462 kts 190°
2026-04-23 10:29 -31.59644 151.37205 40417 ft 462 kts 190°
2026-04-23 10:30 -31.66003 151.35971 40408 ft 462 kts 190°
2026-04-23 10:30 -31.72346 151.34737 40398 ft 462 kts 191°
2026-04-23 10:31 -31.78690 151.33496 40414 ft 462 kts 191°
2026-04-23 10:31 -31.85043 151.32251 40400 ft 462 kts 191°
2026-04-23 10:32 -31.91358 151.31010 40409 ft 462 kts 190°
2026-04-23 10:32 -31.97694 151.29765 40411 ft 462 kts 190°
2026-04-23 10:33 -32.04086 151.28503 40412 ft 462 kts 190°
2026-04-23 10:33 -32.10422 151.27251 40416 ft 462 kts 190°
2026-04-23 10:34 -32.16773 151.25993 40424 ft 462 kts 190°
2026-04-23 10:34 -32.23152 151.24939 40454 ft 462 kts 190°
2026-04-23 10:35 -32.29512 151.23619 40419 ft 463 kts 191°
2026-04-23 10:35 -32.32674 151.22971 40255 ft 466 kts 190°
2026-04-23 10:35 -32.35883 151.22313 39620 ft 469 kts 190°
2026-04-23 10:36 -32.39129 151.21651 39007 ft 469 kts 190°
2026-04-23 10:36 -32.42345 151.20996 38404 ft 466 kts 190°
2026-04-23 10:36 -32.45502 151.20358 37805 ft 459 kts 189°
2026-04-23 10:36 -32.48636 151.19728 37135 ft 451 kts 189°
2026-04-23 10:37 -32.51664 151.19121 36104 ft 446 kts 189°
2026-04-23 10:37 -32.54711 151.18509 34902 ft 445 kts 188°
2026-04-23 10:37 -32.57728 151.17905 33561 ft 443 kts 188°
2026-04-23 10:37 -32.60759 151.17296 32302 ft 436 kts 188°
2026-04-23 10:38 -32.63702 151.16707 31073 ft 429 kts 188°
2026-04-23 10:38 -32.66612 151.16318 30055 ft 417 kts 179°
2026-04-23 10:38 -32.69438 151.15910 28950 ft 409 kts 191°
2026-04-23 10:38 -32.72230 151.15271 27699 ft 404 kts 186°
2026-04-23 10:39 -32.74963 151.14821 26667 ft 394 kts 188°
2026-04-23 10:39 -32.77620 151.14272 25593 ft 388 kts 188°
2026-04-23 10:39 -32.80247 151.13687 24259 ft 388 kts 189°
2026-04-23 10:39 -32.82896 151.13048 23046 ft 383 kts 188°
2026-04-23 10:40 -32.85486 151.12509 21849 ft 378 kts 187°
2026-04-23 10:40 -32.88028 151.11940 20695 ft 374 kts 189°
2026-04-23 10:40 -32.90579 151.11360 19530 ft 369 kts 188°
2026-04-23 10:40 -32.93084 151.10887 18406 ft 365 kts 186°
2026-04-23 10:41 -32.95568 151.10419 17305 ft 361 kts 186°
2026-04-23 10:41 -32.98018 151.09946 16080 ft 362 kts 186°
2026-04-23 10:41 -33.00486 151.09450 14945 ft 358 kts 187°
2026-04-23 10:41 -33.02896 151.08885 13715 ft 359 kts 188°
2026-04-23 10:42 -33.05334 151.08237 12484 ft 356 kts 188°
2026-04-23 10:42 -33.07719 151.07642 11486 ft 349 kts 189°
2026-04-23 10:42 -33.10084 151.07176 10501 ft 341 kts 184°
2026-04-23 10:42 -33.12396 151.06763 10022 ft 335 kts 185°
2026-04-23 10:43 -33.14736 151.06308 9979 ft 353 kts 185°
2026-04-23 10:43 -33.17238 151.05865 10030 ft 370 kts 186°
2026-04-23 10:43 -33.19826 151.05365 10059 ft 384 kts 186°
2026-04-23 10:43 -33.22532 151.04871 9993 ft 386 kts 183°
2026-04-23 10:44 -33.25111 151.04799 9927 ft 362 kts 173°
2026-04-23 10:44 -33.27558 151.05135 9775 ft 346 kts 167°
2026-04-23 10:44 -33.29886 151.05621 9776 ft 330 kts 166°
2026-04-23 10:44 -33.32095 151.06085 9778 ft 317 kts 167°
2026-04-23 10:45 -33.34327 151.06519 9872 ft 330 kts 167°
2026-04-23 10:45 -33.36663 151.07007 9984 ft 346 kts 167°
2026-04-23 10:45 -33.39091 151.07391 9921 ft 356 kts 171°
2026-04-23 10:45 -33.41499 151.07573 9416 ft 340 kts 175°
2026-04-23 10:46 -33.43807 151.07712 8791 ft 328 kts 172°
2026-04-23 10:46 -33.46041 151.07942 8310 ft 314 kts 172°
2026-04-23 10:46 -33.48163 151.08130 8068 ft 297 kts 172°
2026-04-23 10:46 -33.50264 151.08356 6956 ft 310 kts 171°
2026-04-23 10:47 -33.52404 151.08585 5723 ft 319 kts 172°
2026-04-23 10:47 -33.54596 151.08818 4587 ft 311 kts 172°
2026-04-23 10:47 -33.56701 151.09016 3602 ft 300 kts 172°
2026-04-23 10:47 -33.58692 151.09230 3266 ft 272 kts 172°
2026-04-23 10:48 -33.60502 151.09409 3044 ft 248 kts 173°
2026-04-23 10:48 -33.62219 151.09580 2984 ft 256 kts 172°
2026-04-23 10:48 -33.64084 151.09828 3037 ft 279 kts 171°
2026-04-23 10:48 -33.66099 151.10074 3131 ft 289 kts 173°
2026-04-23 10:49 -33.68068 151.10249 2692 ft 279 kts 174°
2026-04-23 10:49 -33.69901 151.10381 2799 ft 249 kts 173°
2026-04-23 10:49 -33.71545 151.10527 2996 ft 223 kts 172°
2026-04-23 10:49 -33.73044 151.10681 3030 ft 208 kts 166°
2026-04-23 10:50 -33.74365 151.11186 3041 ft 193 kts 156°
2026-04-23 10:50 -33.75595 151.11762 3047 ft 182 kts 155°
2026-04-23 10:50 -33.76756 151.12295 3042 ft 172 kts 156°
2026-04-23 10:50 -33.77839 151.12788 3061 ft 159 kts 155°
2026-04-23 10:51 -33.78832 151.13238 3075 ft 143 kts 156°
2026-04-23 10:51 -33.79691 151.13612 3078 ft 127 kts 156°
2026-04-23 10:51 -33.80654 151.14023 2530 ft 167 kts 159°
2026-04-23 10:51 -33.81752 151.14313 2254 ft 150 kts 166°
2026-04-23 10:52 -33.82697 151.14522 2112 ft 129 kts 164°
2026-04-23 10:52 -33.83543 151.14735 1901 ft 120 kts 163°
2026-04-23 10:52 -33.84372 151.14955 1738 ft 125 kts 162°
2026-04-23 10:52 -33.85255 151.15205 1547 ft 133 kts 162°
2026-04-23 10:53 -33.86157 151.15445 1400 ft 135 kts 163°
2026-04-23 10:53 -33.87106 151.15691 1204 ft 139 kts 164°
2026-04-23 10:53 -33.88054 151.15933 1030 ft 140 kts 164°
2026-04-23 10:53 -33.89018 151.16182 839 ft 141 kts 164°
2026-04-23 10:54 -33.89949 151.16419 669 ft 130 kts 164°
2026-04-23 10:54 -33.90820 151.16617 461 ft 125 kts 165°
2026-04-23 10:54 -33.91708 151.16838 362 ft 132 kts 164°
2026-04-23 10:54 -33.92571 151.17061 136 ft 117 kts 165°
2026-04-23 10:55 -33.93286 151.17244 24 ft 93 kts 164°
2026-04-23 10:55 -33.93843 151.17401 10 ft 60 kts 167°
2026-04-23 10:55 -33.93978 151.17433 12 ft 10 kts 168°
2026-04-23 10:55 -33.94081 151.17470 13 ft 10 kts 153°
2026-04-23 10:56 -33.94096 151.17522 13 ft 4 kts 75°
2026-04-23 10:56 -33.94088 151.17566 13 ft 14 kts 76°
2026-04-23 10:56 -33.94058 151.17630 11 ft 21 kts 36°
2026-04-23 10:56 -33.93918 151.17621 8 ft 17 kts
2026-04-23 10:57 -33.93859 151.17705 9 ft 24 kts 73°
2026-04-23 10:57 -33.93768 151.18085 17 ft 57 kts 75°
2026-04-23 10:57 -33.93681 151.18451 27 ft 37 kts 73°
2026-04-23 10:57 -33.93615 151.18738 27 ft 18 kts 71°
2026-04-23 10:58 -33.93564 151.18848 27 ft 19 kts 19°
2026-04-23 10:58 -33.93475 151.18863 27 ft 10 kts
2026-04-23 10:58 -33.93404 151.18898 27 ft 6 kts 56°
2026-04-23 10:58 -33.93368 151.18936 27 ft 0 kts 94°
2026-04-23 10:59 -33.93367 151.18948 27 ft 0 kts 59°